GTOMP EN08-ENGS

Flight info

Callsign GTOMP
Flight time N/A
Altitude 2500
Route ESAR ENSE
Aircraft BE35/L-V/N

Departure

Time N/A
Airport EN08

Arrival

Time 2026-04-29 19:02
Airport Snåsa Airfield Grønøra (ENGS)
Time Latitude Longitude Altitude Speed Heading
2026-04-29 17:51 64.39687 12.33813 427 ft 0 kts 53°
2026-04-29 18:02 64.39700 12.33843 426 ft 10 kts 39°
2026-04-29 18:02 64.39716 12.33905 425 ft 2 kts 166°
2026-04-29 18:03 64.39716 12.33906 425 ft 0 kts 160°
2026-04-29 18:04 64.39603 12.34020 424 ft 54 kts 156°
2026-04-29 18:04 64.39143 12.34447 730 ft 66 kts 150°
2026-04-29 18:04 64.39006 12.35106 1028 ft 69 kts 46°
2026-04-29 18:04 64.39349 12.36086 1288 ft 86 kts 57°
2026-04-29 18:05 64.39411 12.37569 1508 ft 108 kts 91°
2026-04-29 18:05 64.39342 12.39432 1727 ft 123 kts 97°
2026-04-29 18:05 64.39045 12.41348 1935 ft 135 kts 113°
2026-04-29 18:05 64.38660 12.43453 2063 ft 147 kts 111°
2026-04-29 18:06 64.38242 12.45630 2150 ft 149 kts 115°
2026-04-29 18:06 64.37919 12.47901 2183 ft 149 kts 100°
2026-04-29 18:06 64.37601 12.50218 2110 ft 155 kts 111°
2026-04-29 18:06 64.37033 12.52418 1781 ft 168 kts 131°
2026-04-29 18:07 64.36117 12.54086 1613 ft 164 kts 152°
2026-04-29 18:07 64.35414 12.55738 1716 ft 146 kts 97°
2026-04-29 18:07 64.35509 12.58089 1631 ft 147 kts 81°
2026-04-29 18:07 64.35555 12.60509 1415 ft 156 kts 87°
2026-04-29 18:08 64.35785 12.62887 1445 ft 145 kts 74°
2026-04-29 18:08 64.35812 12.65159 1337 ft 147 kts 101°
2026-04-29 18:08 64.35747 12.67437 1391 ft 138 kts 82°
2026-04-29 18:08 64.35894 12.69532 1440 ft 130 kts 79°
2026-04-29 18:09 64.36037 12.71643 1428 ft 134 kts 84°
2026-04-29 18:09 64.36129 12.73829 1423 ft 137 kts 82°
2026-04-29 18:09 64.36349 12.75929 1479 ft 135 kts 73°
2026-04-29 18:09 64.36629 12.78007 1521 ft 134 kts 71°
2026-04-29 18:10 64.36980 12.79994 1572 ft 133 kts 59°
2026-04-29 18:10 64.37405 12.81872 1663 ft 130 kts 60°
2026-04-29 18:10 64.37952 12.83480 1731 ft 129 kts 43°
2026-04-29 18:10 64.38615 12.84860 1782 ft 130 kts 39°
2026-04-29 18:11 64.39225 12.86399 1831 ft 131 kts 55°
2026-04-29 18:11 64.39580 12.88344 1832 ft 134 kts 78°
2026-04-29 18:11 64.39673 12.90457 1911 ft 131 kts 86°
2026-04-29 18:11 64.39831 12.92561 1888 ft 137 kts 73°
2026-04-29 18:12 64.40148 12.94674 1914 ft 135 kts 67°
2026-04-29 18:12 64.40628 12.96501 1964 ft 133 kts 56°
2026-04-29 18:12 64.41057 12.98375 2031 ft 131 kts 70°
2026-04-29 18:12 64.41189 13.00475 2017 ft 136 kts 88°
2026-04-29 18:13 64.41170 13.02685 2034 ft 137 kts 95°
2026-04-29 18:13 64.41151 13.04892 2057 ft 137 kts 85°
2026-04-29 18:13 64.41186 13.07101 2015 ft 143 kts 88°
2026-04-29 18:13 64.41171 13.09383 2065 ft 140 kts 93°
2026-04-29 18:14 64.41124 13.11637 2059 ft 141 kts 93°
2026-04-29 18:14 64.41019 13.13890 2122 ft 137 kts 97°
2026-04-29 18:14 64.40813 13.16028 2173 ft 136 kts 105°
2026-04-29 18:14 64.40563 13.18117 2166 ft 140 kts 102°
2026-04-29 18:15 64.40511 13.20397 2118 ft 143 kts 76°
2026-04-29 18:15 64.40818 13.22487 2252 ft 134 kts 67°
2026-04-29 18:15 64.41014 13.24474 2406 ft 126 kts 97°
2026-04-29 18:15 64.40581 13.26241 2420 ft 129 kts 130°
2026-04-29 18:16 64.39986 13.27775 2537 ft 125 kts 131°
2026-04-29 18:16 64.39532 13.29363 2745 ft 114 kts 121°
2026-04-29 18:16 64.39135 13.31005 2779 ft 121 kts 116°
2026-04-29 18:16 64.38747 13.32724 2859 ft 122 kts 114°
2026-04-29 18:17 64.38419 13.34543 2900 ft 126 kts 105°
2026-04-29 18:17 64.38033 13.36335 2957 ft 127 kts 121°
2026-04-29 18:17 64.37571 13.38125 2959 ft 132 kts 117°
2026-04-29 18:17 64.37129 13.40122 2910 ft 146 kts 117°
2026-04-29 18:18 64.36626 13.42195 2963 ft 149 kts 117°
2026-04-29 18:18 64.36136 13.44291 2996 ft 152 kts 117°
2026-04-29 18:18 64.35601 13.46422 3031 ft 154 kts 120°
2026-04-29 18:18 64.35051 13.48547 3069 ft 154 kts 120°
2026-04-29 18:19 64.34492 13.50656 3084 ft 156 kts 121°
2026-04-29 18:19 64.33848 13.52689 3108 ft 157 kts 130°
2026-04-29 18:19 64.33124 13.54598 3106 ft 159 kts 131°
2026-04-29 18:19 64.32366 13.56485 3079 ft 160 kts 134°
2026-04-29 18:20 64.31566 13.58208 2928 ft 159 kts 136°
2026-04-29 18:20 64.30733 13.59994 2537 ft 171 kts 136°
2026-04-29 18:20 64.29873 13.61858 2348 ft 165 kts 136°
2026-04-29 18:20 64.29053 13.63618 2199 ft 158 kts 135°
2026-04-29 18:21 64.28308 13.65462 2023 ft 154 kts 133°
2026-04-29 18:21 64.27542 13.67115 1909 ft 149 kts 139°
2026-04-29 18:21 64.26798 13.68740 1740 ft 148 kts 136°
2026-04-29 18:21 64.26080 13.70388 1673 ft 141 kts 136°
2026-04-29 18:22 64.25417 13.71967 1642 ft 134 kts 131°
2026-04-29 18:22 64.24828 13.73531 1664 ft 126 kts 131°
2026-04-29 18:22 64.24252 13.75085 1663 ft 130 kts 130°
2026-04-29 18:22 64.23689 13.76683 1720 ft 130 kts 129°
2026-04-29 18:23 64.23077 13.78285 1693 ft 137 kts 134°
2026-04-29 18:23 64.22397 13.79895 1666 ft 140 kts 135°
2026-04-29 18:23 64.21648 13.81277 1673 ft 141 kts 145°
2026-04-29 18:23 64.20792 13.82362 1721 ft 137 kts 159°
2026-04-29 18:24 64.19873 13.83063 1676 ft 142 kts 164°
2026-04-29 18:24 64.18904 13.83511 1684 ft 142 kts 170°
2026-04-29 18:24 64.17931 13.83861 1667 ft 143 kts 171°
2026-04-29 18:24 64.16955 13.84184 1663 ft 144 kts 171°
2026-04-29 18:25 64.15993 13.84757 1634 ft 144 kts 151°
2026-04-29 18:25 64.15218 13.86222 1652 ft 142 kts 136°
2026-04-29 18:25 64.14512 13.87761 1701 ft 138 kts 136°
2026-04-29 18:25 64.13792 13.89150 1814 ft 132 kts 139°
2026-04-29 18:26 64.13166 13.90669 1840 ft 134 kts 126°
2026-04-29 18:26 64.12601 13.92404 1841 ft 137 kts 128°
2026-04-29 18:26 64.11964 13.94069 1795 ft 142 kts 130°
2026-04-29 18:26 64.11345 13.95776 1865 ft 137 kts 130°
2026-04-29 18:27 64.10686 13.97369 1886 ft 138 kts 134°
2026-04-29 18:27 64.09993 13.98849 1948 ft 135 kts 138°
2026-04-29 18:27 64.09255 14.00192 1959 ft 137 kts 141°
2026-04-29 18:27 64.08604 14.01790 1937 ft 140 kts 129°
2026-04-29 18:28 64.08035 14.03577 1945 ft 141 kts 123°
2026-04-29 18:28 64.07501 14.05432 1998 ft 138 kts 122°
2026-04-29 18:28 64.07023 14.07321 2017 ft 138 kts 117°
2026-04-29 18:28 64.06572 14.09394 1808 ft 152 kts 114°
2026-04-29 18:29 64.06071 14.11369 1997 ft 136 kts 125°
2026-04-29 18:29 64.05707 14.12552 1965 ft 140 kts 124°
2026-04-29 18:29 64.04872 14.14818 2052 ft 133 kts 146°
2026-04-29 18:29 64.04024 14.15658 2067 ft 134 kts 172°
2026-04-29 18:30 64.03126 14.15228 2127 ft 131 kts 212°
2026-04-29 18:30 64.02423 14.13862 2114 ft 136 kts 221°
2026-04-29 18:30 64.01725 14.12375 2089 ft 140 kts 223°
2026-04-29 18:30 64.01042 14.10833 2143 ft 137 kts 225°
2026-04-29 18:31 64.00391 14.09362 2303 ft 127 kts 221°
2026-04-29 18:31 63.99750 14.08057 2468 ft 120 kts 221°
2026-04-29 18:31 63.99110 14.06851 2518 ft 124 kts 215°
2026-04-29 18:31 63.98376 14.05730 2511 ft 130 kts 211°
2026-04-29 18:32 63.97577 14.04632 2482 ft 136 kts 208°
2026-04-29 18:32 63.95948 14.02601 2576 ft 134 kts 210°
2026-04-29 18:32 63.95141 14.01509 2589 ft 136 kts 210°
2026-04-29 18:33 63.94324 14.00398 2557 ft 140 kts 210°
2026-04-29 18:33 63.93478 13.99236 2530 ft 142 kts 211°
2026-04-29 18:33 63.92628 13.98127 2516 ft 143 kts 207°
2026-04-29 18:33 63.91779 13.96978 2522 ft 142 kts 212°
2026-04-29 18:34 63.90957 13.95687 2497 ft 143 kts 216°
2026-04-29 18:34 63.90439 13.94808 2584 ft 135 kts 218°
2026-04-29 18:34 63.89493 13.93115 2756 ft 127 kts 218°
2026-04-29 18:34 63.88802 13.91834 2804 ft 127 kts 220°
2026-04-29 18:35 63.88147 13.90484 2831 ft 130 kts 219°
2026-04-29 18:35 63.87374 13.89226 2745 ft 141 kts 213°
2026-04-29 18:35 63.86477 13.88179 2633 ft 151 kts 201°
2026-04-29 18:35 63.85484 13.87419 2650 ft 149 kts 196°
2026-04-29 18:36 63.84485 13.86693 2639 ft 151 kts 197°
2026-04-29 18:36 63.83512 13.85910 2622 ft 151 kts 207°
2026-04-29 18:36 63.82618 13.84642 2602 ft 152 kts 214°
2026-04-29 18:36 63.81743 13.83295 2608 ft 151 kts 210°
2026-04-29 18:37 63.80827 13.82097 2554 ft 154 kts 209°
2026-04-29 18:37 63.80027 13.80848 2894 ft 129 kts 223°
2026-04-29 18:37 63.79341 13.79415 2863 ft 139 kts 222°
2026-04-29 18:37 63.78608 13.77924 2868 ft 142 kts 221°
2026-04-29 18:38 63.77828 13.76514 2822 ft 148 kts 216°
2026-04-29 18:38 63.76931 13.75205 2674 ft 157 kts 214°
2026-04-29 18:38 63.76190 13.73397 2544 ft 162 kts 231°
2026-04-29 18:38 63.75459 13.71371 2438 ft 161 kts 230°
2026-04-29 18:39 63.74737 13.69481 2405 ft 159 kts 229°
2026-04-29 18:39 63.74018 13.67636 2433 ft 154 kts 227°
2026-04-29 18:39 63.73277 13.66072 2591 ft 143 kts 218°
2026-04-29 18:39 63.72617 13.64470 2713 ft 138 kts 236°
2026-04-29 18:40 63.72059 13.62589 2577 ft 151 kts 235°
2026-04-29 18:40 63.71406 13.60656 2443 ft 159 kts 231°
2026-04-29 18:40 63.70713 13.58693 2339 ft 162 kts 230°
2026-04-29 18:40 63.69947 13.56763 2116 ft 169 kts 229°
2026-04-29 18:41 63.68660 13.50263 2222 ft 151 kts 270°
2026-04-29 18:41 63.68678 13.48002 2384 ft 141 kts 270°
2026-04-29 18:42 63.68635 13.45806 2463 ft 140 kts 265°
2026-04-29 18:42 63.68559 13.43627 2525 ft 139 kts 263°
2026-04-29 18:42 63.68456 13.41475 2559 ft 141 kts 265°
2026-04-29 18:42 63.68353 13.39160 2389 ft 155 kts 264°
2026-04-29 18:43 63.68230 13.36679 2202 ft 163 kts 266°
2026-04-29 18:43 63.68162 13.34071 2032 ft 168 kts 266°
2026-04-29 18:43 63.68408 13.31678 2031 ft 161 kts 308°
2026-04-29 18:43 63.69244 13.29990 1953 ft 161 kts 318°
2026-04-29 18:44 63.70079 13.28363 1955 ft 156 kts 320°
2026-04-29 18:44 63.70917 13.26725 1832 ft 159 kts 318°
2026-04-29 18:44 63.71677 13.25085 1894 ft 146 kts 315°
2026-04-29 18:44 63.72143 13.23186 1940 ft 139 kts 280°
2026-04-29 18:45 63.72078 13.20994 1869 ft 141 kts 259°
2026-04-29 18:45 63.71867 13.18804 1781 ft 145 kts 255°
2026-04-29 18:45 63.71590 13.16659 1816 ft 138 kts 250°
2026-04-29 18:45 63.71428 13.14637 1979 ft 125 kts 270°
2026-04-29 18:46 63.71492 13.12684 1952 ft 130 kts 274°
2026-04-29 18:46 63.71504 13.10618 1909 ft 135 kts 267°
2026-04-29 18:46 63.71480 13.08504 1881 ft 137 kts 266°
2026-04-29 18:46 63.71446 13.06310 1771 ft 143 kts 272°
2026-04-29 18:47 63.71838 13.04294 1737 ft 141 kts 307°
2026-04-29 18:47 63.72432 13.02548 1711 ft 140 kts 309°
2026-04-29 18:47 63.73093 13.00963 1693 ft 132 kts 314°
2026-04-29 18:47 63.73688 12.99582 1724 ft 110 kts 315°
2026-04-29 18:48 63.74189 12.98388 1668 ft 102 kts 304°
2026-04-29 18:48 63.74387 12.96956 1644 ft 91 kts 278°
2026-04-29 18:48 63.74528 12.95588 1598 ft 89 kts 283°
2026-04-29 18:48 63.74689 12.94309 1650 ft 78 kts 286°
2026-04-29 18:49 63.74942 12.93291 1654 ft 76 kts 308°
2026-04-29 18:49 63.75331 12.92354 1561 ft 87 kts 316°
2026-04-29 18:49 63.75820 12.91500 1533 ft 88 kts 331°
2026-04-29 18:49 63.76378 12.90866 1488 ft 91 kts 332°
2026-04-29 18:50 63.76914 12.90272 1571 ft 77 kts 334°
2026-04-29 18:50 63.77362 12.89819 1664 ft 74 kts 331°
2026-04-29 18:50 63.77975 12.89427 1805 ft 102 kts 360°
2026-04-29 18:50 63.78590 12.90205 2114 ft 107 kts 38°
2026-04-29 18:51 63.79195 12.91236 2470 ft 106 kts 38°
2026-04-29 18:51 63.79816 12.92512 2395 ft 138 kts 46°
2026-04-29 18:51 63.80415 12.94209 2444 ft 146 kts 38°
2026-04-29 18:51 63.81375 12.95107 2383 ft 156 kts
2026-04-29 18:52 63.82470 12.95719 2271 ft 163 kts 21°
2026-04-29 18:52 63.83522 12.96756 2075 ft 168 kts 23°
2026-04-29 18:52 63.84641 12.97652 1816 ft 174 kts 14°
2026-04-29 18:52 63.85807 12.97521 1666 ft 172 kts 340°
2026-04-29 18:53 63.86834 12.96306 1718 ft 158 kts 332°
2026-04-29 18:53 63.87821 12.95240 1617 ft 160 kts 334°
2026-04-29 18:53 63.88782 12.94159 1740 ft 148 kts 331°
2026-04-29 18:53 63.89705 12.93077 1712 ft 149 kts 335°
2026-04-29 18:54 63.90648 12.92205 1745 ft 147 kts 335°
2026-04-29 18:54 63.91568 12.91092 1642 ft 153 kts 334°
2026-04-29 18:54 63.92552 12.90026 1568 ft 153 kts 333°
2026-04-29 18:54 63.93449 12.88927 1657 ft 146 kts 325°
2026-04-29 18:55 63.94141 12.87237 1664 ft 145 kts 304°
2026-04-29 18:55 63.94576 12.85243 1738 ft 141 kts 287°
2026-04-29 18:55 63.94799 12.83059 1776 ft 141 kts 283°
2026-04-29 18:55 63.95085 12.80859 1659 ft 150 kts 285°
2026-04-29 18:56 63.95337 12.78586 1695 ft 147 kts 283°
2026-04-29 18:56 63.95726 12.76470 1657 ft 149 kts 305°
2026-04-29 18:56 63.96540 12.75064 1648 ft 148 kts 330°
2026-04-29 18:56 63.97436 12.74024 1700 ft 144 kts 330°
2026-04-29 18:57 63.98238 12.72748 1716 ft 132 kts 327°
2026-04-29 18:57 63.98935 12.71492 1649 ft 131 kts 310°
2026-04-29 18:57 63.99270 12.69670 1624 ft 121 kts 272°
2026-04-29 18:57 63.99388 12.68005 1686 ft 101 kts 314°
2026-04-29 18:58 64.00061 12.67946 1609 ft 100 kts 11°
2026-04-29 18:58 64.00717 12.68191 1573 ft 93 kts
2026-04-29 18:58 64.01354 12.68351 1736 ft 93 kts
2026-04-29 18:58 64.01964 12.67735 1909 ft 107 kts 323°
2026-04-29 18:59 64.02534 12.66580 2144 ft 112 kts 309°
2026-04-29 18:59 64.03126 12.65037 1954 ft 153 kts 310°
2026-04-29 18:59 64.03852 12.63228 1987 ft 150 kts 315°
2026-04-29 18:59 64.04663 12.61696 1991 ft 151 kts 323°
2026-04-29 19:00 64.05534 12.60718 2233 ft 137 kts 344°
2026-04-29 19:00 64.06478 12.60129 2182 ft 147 kts 342°
2026-04-29 19:00 64.07448 12.59499 2167 ft 146 kts 341°
2026-04-29 19:00 64.08359 12.58772 2171 ft 121 kts 345°
2026-04-29 19:01 64.09047 12.58378 2086 ft 80 kts 355°
2026-04-29 19:01 64.09409 12.58653 1962 ft 0 kts 93°
2026-04-29 19:02 64.18273 12.17160 83 ft 0 kts 317°
2026-04-29 19:04 64.18281 12.17145 83 ft 8 kts 319°
2026-04-29 19:04 64.18298 12.17114 83 ft 0 kts 318°
2026-04-29 19:05 64.18358 12.17117 83 ft 21 kts 29°
2026-04-29 19:06 64.18556 12.17514 80 ft 0 kts 197°
2026-04-29 19:06 64.18272 12.17161 83 ft 0 kts 318°
2026-04-29 19:07 64.18346 12.17169 83 ft 14 kts 51°
2026-04-29 19:07 64.18398 12.17239 83 ft 11 kts 209°
2026-04-29 19:08 64.18328 12.17088 83 ft 26 kts 225°
2026-04-29 19:08 64.18064 12.16493 189 ft 65 kts 230°
2026-04-29 19:08 64.17870 12.15602 518 ft 69 kts 237°
2026-04-29 19:08 64.17484 12.14673 714 ft 92 kts 188°
2026-04-29 19:09 64.16985 12.15586 853 ft 113 kts 111°
2026-04-29 19:09 64.16748 12.17330 1082 ft 119 kts 82°
2026-04-29 19:09 64.17220 12.19028 1040 ft 127 kts 49°
2026-04-29 19:09 64.17872 12.20725 533 ft 149 kts 46°
2026-04-29 19:10 64.18539 12.22251 555 ft 135 kts 42°
2026-04-29 19:10 64.19305 12.23219 502 ft 126 kts 355°
2026-04-29 19:10 64.19984 12.22138 511 ft 114 kts 306°
2026-04-29 19:10 64.19925 12.20592 575 ft 96 kts 231°
2026-04-29 19:11 64.19389 12.19619 435 ft 101 kts 215°
2026-04-29 19:11 64.18879 12.18533 271 ft 101 kts 229°
2026-04-29 19:11 64.18446 12.17406 100 ft 93 kts 230°
2026-04-29 19:11 64.18056 12.16452 334 ft 73 kts 219°
2026-04-29 19:12 64.17628 12.16826 381 ft 97 kts 126°
2026-04-29 19:12 64.17445 12.18161 387 ft 82 kts 66°
2026-04-29 19:12 64.17855 12.19064 357 ft 80 kts 42°
2026-04-29 19:12 64.18115 12.19628 332 ft 77 kts 40°
2026-04-29 19:13 64.18643 12.20624 271 ft 67 kts 35°
2026-04-29 19:13 64.19044 12.20571 194 ft 64 kts 303°
2026-04-29 19:13 64.18989 12.19669 193 ft 57 kts 246°
2026-04-29 19:13 64.18923 12.18832 128 ft 63 kts 272°
2026-04-29 19:14 64.18928 12.18766 94 ft 0 kts
2026-04-29 19:15 64.18273 12.17160 83 ft 0 kts 317°
2026-04-29 19:15 64.18274 12.17159 83 ft 1 kts 317°
2026-04-29 19:15 64.18297 12.17117 83 ft 0 kts 326°
2026-04-29 19:16 64.18304 12.17105 83 ft 0 kts 322°